Bowling Green, KY

4:49 AM CDT on March 23, 2017 (GMT -0500)
Bowling Green-Warren County Regional

Weather History for KBWG - August, 2012

Change the Weather History Date:

Wednesday, August 1, 2012

  Actual Average Record
Temperature  
Mean Temperature 89 °F 78 °F  
Max Temperature 101 °F 90 °F 102 °F (1931)
Min Temperature 77 °F 68 °F 53 °F (1925)
Degree Days  
Heating Degree Days 0 0  
Month to date heating degree days 0 0  
Since 1 June heating degree days 7 5  
Since 1 July heating degree days 0 0  
Cooling Degree Days 24 14  
Month to date cooling degree days 24 14  
Year to date cooling degree days 1357 895  
Since 1 June cooling degree days 978 742  
Growing Degree Days 39 (Base 50)    
Moisture  
Dew Point 67 °F    
Average Humidity 52    
Maximum Humidity 79    
Minimum Humidity 24    
Precipitation  
Precipitation 0.00 in 0.10 in 2.40 in (1938)
Month to date precipitation 0.00 0.10  
Year to date precipitation 24.04 30.33  
Snow  
Snow 0.00 in 0.00 in 0.00 in ()
Month to date snowfall 0.0 0.0  
Since 1 June snowfall 0.0 0.0  
Since 1 July snowfall 0.0 0.0  
Snow Depth 0.00 in    
Sea Level Pressure  
Sea Level Pressure 29.86 in    
Wind  
Wind Speed 5 mph (West)    
Max Wind Speed 14 mph    
Max Gust Speed 23 mph    
Visibility 10 miles    
Events      
T = Trace of Precipitation, MM = Missing Value Source: NWS Daily Summary

Daily Weather History Graph

Daily Weather History Graph

Search for Another Location

Airport or City:

Trip Planner

Search our weather history database for the weather conditions in past years. The results will help you decide how hot, cold, wet, or windy it might be!

Date:

Astronomy

Aug. 01, 2012 Rise Set
Actual Time 5:51 AM CDT 7:52 PM CDT
Civil Twilight 5:22 AM CDT 8:20 PM CDT
Nautical Twilight 4:47 AM CDT 8:55 PM CDT
Astronomical Twilight 4:10 AM CDT 9:32 PM CDT
Moon 7:23 PM CDT (8/1) 5:19 AM CDT (8/1)
Length of Visible Light 14h 57m
Length of Day
14h 00m
Full, 100% of the Moon is Illuminated
Aug 1
Full
Aug 1
Full
Aug 9
Last Quarter
Aug 17
New
Aug 24
First Quarter

Hourly Weather History & Observations

Time (CDT) Temp. Heat Index Dew Point Humidity Pressure Visibility Wind Dir Wind Speed Gust Speed Precip Events Conditions
12:53 AM 79.0 °F - 71.1 °F 77% 29.89 in 10.0 mi East 3.5 mph - N/A   Clear
1:53 AM 81.0 °F 84.4 °F 70.0 °F 69% 29.88 in 10.0 mi South 3.5 mph - N/A   Clear
2:53 AM 80.1 °F 83.2 °F 70.0 °F 71% 29.88 in 10.0 mi SSW 4.6 mph - N/A   Clear
3:53 AM 80.1 °F 83.2 °F 70.0 °F 71% 29.88 in 10.0 mi SSW 4.6 mph - N/A   Clear
4:53 AM 78.1 °F - 71.1 °F 79% 29.88 in 10.0 mi SSW 3.5 mph - N/A   Scattered Clouds
5:53 AM 78.1 °F - 71.1 °F 79% 29.89 in 9.0 mi SW 3.5 mph - N/A   Clear
6:53 AM 79.0 °F - 71.1 °F 77% 29.89 in 8.0 mi SW 6.9 mph - N/A   Partly Cloudy
7:53 AM 82.0 °F 86.7 °F 72.0 °F 71% 29.90 in 8.0 mi West 3.5 mph - N/A   Clear
8:53 AM 88.0 °F 95.6 °F 73.0 °F 61% 29.91 in 10.0 mi WSW 6.9 mph - N/A   Clear
9:53 AM 91.9 °F 100.7 °F 73.0 °F 54% 29.89 in 10.0 mi West 9.2 mph - N/A   Clear
10:53 AM 93.9 °F 103.4 °F 73.0 °F 51% 29.88 in 10.0 mi WSW 6.9 mph - N/A   Clear
11:53 AM 96.1 °F 104.9 °F 72.0 °F 46% 29.87 in 10.0 mi West 8.1 mph - N/A   Clear
12:53 PM 98.1 °F 108.0 °F 73.0 °F 44% 29.86 in 10.0 mi West 8.1 mph 16.1 mph N/A   Scattered Clouds
1:53 PM 100.0 °F 105.6 °F 68.0 °F 35% 29.84 in 10.0 mi NW 10.4 mph - N/A   Clear
2:53 PM 100.0 °F 103.0 °F 64.0 °F 31% 29.83 in 10.0 mi Variable 5.8 mph 21.9 mph N/A   Clear
3:53 PM 99.0 °F 102.9 °F 66.0 °F 34% 29.81 in 10.0 mi Variable 5.8 mph - N/A   Clear
4:53 PM 99.0 °F 99.5 °F 61.0 °F 28% 29.81 in 10.0 mi NNW 9.2 mph - N/A   Clear
5:53 PM 98.1 °F 96.4 °F 55.0 °F 24% 29.81 in 10.0 mi NW 5.8 mph - N/A   Clear
6:53 PM 95.0 °F 93.7 °F 57.0 °F 28% 29.82 in 10.0 mi WNW 6.9 mph - N/A   Clear
7:53 PM 91.9 °F 91.5 °F 60.1 °F 34% 29.82 in 10.0 mi Calm Calm - N/A   Clear
8:53 PM 87.1 °F 86.5 °F 59.0 °F 39% 29.84 in 10.0 mi North 3.5 mph - N/A   Clear
9:53 PM 80.1 °F 81.2 °F 62.1 °F 54% 29.86 in 10.0 mi Calm Calm - N/A   Clear
10:53 PM 81.0 °F 82.5 °F 64.0 °F 56% 29.88 in 10.0 mi Calm Calm - N/A   Clear